Flag for U.S.A. Weather past 2 weeks in Fort Bragg, California, U.S.A.

Now
78 °F

Broken clouds.


Feels Like: 79 °F
Forecast: 60 / 68 °F
Wind: 10 mph from Southeast

Location: Ukiah Municipal

Current Time: Sep 17, 2014 at 6:52:39 PM

Latest Report: Sep 17, 2014 at 5:56 PM


Visibility: 10 mi

Pressure: 29.67 "Hg

Humidity: 37%

Dew point: 50 °F

Location of Fort BraggLocation

Historic Weather in Fort Bragg — Graph

°F

Fort Bragg temperature yesterday

Maximum temperature yesterday: 90 °F (at 3:56 PM)
Minimum temperature yesterday: 52 °F (at 4:56 AM)
Average temperature yesterday: 69 °F

Past Weeks' High & Low Weather Summary

 TemperatureHumidityPressure
High101 °F (Sep 11, 3:56 PM)97% (Sep 6, 6:56 AM)29.98 "Hg (Sep 6, 6:56 AM)
Low48 °F (Sep 7, 6:56 AM)5% (Sep 6, 3:56 PM)29.63 "Hg (Sep 3, 3:56 PM)
Average71 °F46%29.81 "Hg
* Reported Sep 2 4:56 PM — Sep 17 4:56 PM, Fort Bragg, Weather by CustomWeather, © 2014

Note: Actual official high and low records may vary slightly from our data, if they occured in-between our weather recording intervals... More about our weather records

Advertising

Fort Bragg weather history for previous 24 hours

 ConditionsComfort  
Time TempWeatherWind HumidityBarometerVisibility
4:56 PM
Sep 17
81 °FPassing clouds.10 mph37%29.67 "Hg10 mi
3:56 PM84 °FSunny.12 mph33%29.68 "Hg10 mi
2:56 PM83 °FSunny.10 mph33%29.70 "Hg10 mi
1:56 PM80 °FSunny.14 mph35%29.73 "Hg10 mi
12:56 PM78 °FSunny.13 mph36%29.75 "Hg10 mi
11:56 AM75 °FSunny.15 mph37%29.76 "Hg10 mi
10:56 AM70 °FSunny.12 mph57%29.77 "Hg10 mi
9:56 AM64 °FSunny.9 mph70%29.78 "Hg10 mi
8:56 AM62 °FLow clouds.8 mph78%29.79 "Hg10 mi
7:56 AM58 °FLow clouds.9 mph90%29.79 "Hg10 mi
6:56 AM56 °FClear.No wind77%29.78 "Hg10 mi
5:56 AM60 °FClear.5 mph78%29.77 "Hg10 mi
4:56 AM61 °FClear.3 mph78%29.77 "Hg10 mi
3:56 AM63 °FClear.3 mph70%29.77 "Hg10 mi
2:56 AM64 °FClear.No wind73%29.77 "Hg10 mi
1:56 AM65 °FClear.3 mph68%29.78 "Hg10 mi
12:56 AM66 °FClear.No wind63%29.78 "Hg10 mi
11:56 PM
Sep 16
69 °FClear.3 mph53%29.77 "Hg10 mi
10:56 PM69 °FClear.No wind55%29.78 "Hg10 mi
9:56 PM72 °FClear.3 mph46%29.78 "Hg10 mi
8:56 PM75 °FClear.5 mph42%29.78 "Hg10 mi
7:56 PM75 °FSunny.No wind43%29.77 "Hg10 mi
6:56 PM81 °FSunny.No wind33%29.76 "Hg10 mi
Weather by CustomWeather, © 2014

See weather overviewHow to use our weather pages